Location: Aranbee
(34.0885°N, 118.2342°W)
Time: 17:12:49
(UTC+00:00)

A-11 Canister half - Pass Details

Date: 29 July 2021
Orbit: 1514 x 1685 km, 47.2° (Epoch: 17 September)

Event Time Altitude Azimuth Distance (km) Brightness Sun altitude
Rises 06:22:28 0° 302° (WNW) 4,911 12.4 -32.4°
Reaches altitude 10° 06:25:46 10° 307° (NW) 3,935 11.8 -32.7°
Maximum altitude 06:35:38 52° 23° (NNE) 2,016 9.7 -33.6°
Enters shadow 06:41:14 28° 85° (E) 2,792 10.1 -34.0°
